Regional Weather Roundup
Issued by NWS Albany, NY

Home | Current Version | Previous Version | Text Only | Print | Product List | Glossary On
Versions: 1 2 3 4 5 6 7 8 9 10 11 12 13 14 15 16 17 18 19 20 21 22 23 24 25 26 27 28 29 30 31 32 33 34 35 36 37 38 39 40 41 42 43 44 45 46 47 48 49 50
000
ASUS41 KALY 271310
RWRALY

NEW YORK STATE HOURLY WEATHER ROUNDUP
NATIONAL WEATHER SERVICE ALBANY NY
900 AM EDT MON JUL 27 2015

NOTE: "FAIR" INDICATES FEW OR NO CLOUDS BELOW 12,000 FEET WITH NO
SIGNIFICANT WEATHER AND/OR NO OBSTRUCTIONS TO VISIBILITY.

NYZ032-033-038>043-046>054-057>066-NYZ062>081-271400-
EAST


CITY           SKY/WX    TMP DP  RH WIND       PRES   REMARKS
ALBANY         MOSUNNY   74  66  76 S6        30.02S
GLENS FALLS    CLOUDY    70  67  90 E3        30.02S FOG
POUGHKEEPSIE   PTSUNNY   73  68  84 CALM      30.02R
NEWBURGH       MOSUNNY   70  68  94 VRB5      30.05R
MONTGOMERY     PTSUNNY   74  69  85 SW3       30.03
WHITE PLAINS   CLOUDY    73  68  84 CALM      30.04R
ISLIP          CLOUDY    77  68  73 CALM      30.02R
NEW YORK CITY  CLOUDY    77  64  64 S7        30.02R
CENTRAL PARK   PTSUNNY   76  68  76 W5        30.05R
$$

NYZ005>009-017-018-044>046-055-056-271400-
CENTRAL


CITY           SKY/WX    TMP DP  RH WIND       PRES   REMARKS
FULTON         MOSUNNY   70  67  90 CALM      30.03R
SYRACUSE       SUNNY     72  67  84 E3        30.02R
ROME           SUNNY     69  65  86 CALM      30.05R
ELMIRA         FOG       65  65 100 SW6       30.05R VSB 1/2
BINGHAMTON     MOSUNNY   69  65  86 VRB3      30.06S
MONTICELLO     CLOUDY    64  64 100 S3        30.08R
$$

NYZ026>034-041>043-271400-
NORTH


CITY           SKY/WX    TMP DP  RH WIND       PRES   REMARKS
WATERTOWN      SUNNY     73  66  78 SW7       30.01R
FORT DRUM      NOT AVBL
MASSENA        MOSUNNY   74  66  76 SW10      29.99R
SARANAC LAKE   FOG       64  64 100 S3        30.05R VSB 3/4
PLATTSBURGH    SUNNY     72  68  87 SE8       30.00R
$$

NYZ001>004-010>016-019>021-271400-
WEST


CITY           SKY/WX    TMP DP  RH WIND       PRES   REMARKS
NIAGARA FALLS  MOSUNNY   74  68  81 SW5       30.02S
BUFFALO        MOSUNNY   73  65  75 S5        30.03S
DUNKIRK        SUNNY     74  64  71 CALM      30.04R
JAMESTOWN      SUNNY     70  63  78 NE3       30.09R
WELLSVILLE     FOG       67  64  90 CALM      30.11R VSB<1/4
ROCHESTER      SUNNY     72  65  78 SW6       30.03S
PENN YAN       PTSUNNY   68  67  96 SW5       30.05R FOG
$$

             KEY
       WCI = WIND CHILL INDEX
       VSB = VISIBILITY
       HX  = HEAT INDEX
$$


USA.gov is the U.S. government's official web portal to all federal, state and local government web resources and services.